Location: New Canada
(47.1017°N, 68.5042°W)
Time: 17:41:10
(UTC+00:00)

KKS-1 - Pass Details

Date: 24 April 2024
Orbit: 628 x 639 km, 98.1° (Epoch: 21 May)

Event Time Altitude Azimuth Distance (km) Brightness Sun altitude
Rises 04:03:10 0° 12° (NNE) 2,958 ? -29.5°
Reaches altitude 10° 04:05:23 10° 11° (N) 2,044 ? -29.6°
Enters shadow 04:08:27 44° 4° (N) 898 ? -29.6°
